Content
SEND FEEDBACK

Daily
Averages
Monthly
Summary
Switzerland

GENEVA, SWITZERLAND


Home > Europe > Switzerland
Elevation: 1364 feet     Latitude: 46 15N     Longitude: 006 08E

WEATHER
 
SELECT A DAY
Number of Records: 313,221;   Date Range: 7/1/96 - 10/21/14
 
SHARE

PRINT THIS DATA

[ ← Previous Day ]
WEATHER ALMANAC - JANUARY 21, 2013
[ Next Day → ]
[ °C ]   °F
Weather ElementAverageHighLow
Temperature32.7 °F38 °F (11:00 pm)24.8 °F (5:50 am)
Dewpoint28.3 °F33.8 °F (8:20 pm)23 °F (5:50 am)
Humidity82 %93 % (4:50 am)64 % (11:00 pm)
Barometer29.50 in29.61 in (11:00 pm)29.42 in (1:50 am)
Wind Speed6.7 mph15 mph (11:20 pm)
Weather ElementAverage
Visibility7.4 mi
Wind DirectionSSW (210.7 °)

Weather ElementTotal
Precipitation---
Heating Degree Days33.6 (Base 65)
Averaged from 67 records on January 21, 2013
WEATHER CONDITIONS BREAKOUT
WIND DIRECTION BREAKOUT
WEATHER BY HOUR - JANUARY 21, 2013
[ °C ]   °F
Local TimeTemperatureDewpointHumidityBarometerVisibilityWind DirectionWind SpeedGust SpeedPrecipitationEventsConditions
12:20 AM32.0 °F26.6 °F80 %29.44 in6.2 miSSW (200°)10.4 mphMostly Cloudy
12:50 AM32.0 °F26.6 °F80 %29.44 in6.2 miSSW (200°)11.5 mphMostly Cloudy
1:00 AM32.0 °F26.0 °F71 %29.50 in19.0 miSSW (210°)10.4 mphPartly Cloudy
1:50 AM32.0 °F26.6 °F80 %29.42 in6.2 miSSW (210°)8.1 mphMostly Cloudy
2:00 AM32.0 °F27.0 °F73 %29.49 inSW (220°)9.2 mph
2:20 AM32.0 °F26.6 °F80 %29.42 inSW (230°)6.9 mphClear
2:50 AM32.0 °F26.6 °F80 %29.44 inSW (230°)6.9 mphClear
3:00 AM31.0 °F26.0 °F73 %29.51 inSW (230°)5.8 mph
3:20 AM30.2 °F26.6 °F86 %29.44 inSSW (200°)6.9 mphClear
3:28 AM30.2 °F26.6 °F86 %29.44 inSSW (210°)6.9 mphClear
3:50 AM28.4 °F24.8 °F86 %29.44 inSW (220°)5.8 mphClear
4:20 AM28.4 °F24.8 °F86 %29.44 inWSW (240°)5.8 mphClear
4:50 AM26.6 °F24.8 °F93 %29.44 inSW (220°)3.5 mphClear
5:00 AM29.0 °F25.0 °F79 %29.52 inSSW (210°)4.6 mph
5:20 AM26.6 °F24.8 °F93 %29.44 inVariable3.5 mphClear
5:50 AM24.8 °F23.0 °F93 %29.44 inWSW (240°)5.8 mphClear
6:00 AM27.0 °F24.0 °F83 %29.54 inWSW (240°)3.5 mph
6:20 AM26.6 °F23.0 °F86 %29.44 in6.2 miVariable1.2 mphMostly Cloudy
6:50 AM26.6 °F24.8 °F93 %29.47 in6.2 miWNW (290°)3.5 mphMostly Cloudy
7:00 AM28.0 °F24.0 °F80 %29.54 in16.0 miWest (280°)3.5 mphScattered Clouds
7:20 AM26.6 °F24.8 °F93 %29.47 in6.2 miVariable2.3 mphMostly Cloudy
7:50 AM26.6 °F24.8 °F93 %29.47 in6.2 miWNW (290°)2.3 mphMostly Cloudy
8:00 AM27.0 °F24.0 °F86 %29.55 inWSW (240°)1.2 mph
8:20 AM26.6 °F24.8 °F93 %29.44 in6.2 miVariable2.3 mphMostly Cloudy
8:50 AM28.4 °F26.6 °F93 %29.47 in6.2 miWest (260°)3.5 mphMostly Cloudy
9:00 AM29.0 °F25.0 °F79 %29.55 inWest (270°)4.6 mph
9:20 AM28.4 °F26.6 °F93 %29.47 in6.2 miWest (260°)4.6 mphMostly Cloudy
9:50 AM30.2 °F26.6 °F86 %29.47 in6.2 miVariable2.3 mphMostly Cloudy
10:20 AM30.2 °F26.6 °F86 %29.47 in6.2 miWest (270°)3.5 mphMostly Cloudy
10:50 AM32.0 °F26.6 °F80 %29.47 in6.2 miWSW (240°)3.5 mphMostly Cloudy
11:00 AM33.0 °F27.0 °F70 %29.55 inWSW (240°)8.1 mph
11:20 AM33.8 °F28.4 °F81 %29.50 in6.2 miSW (230°)10.4 mphSnowLight Snow
11:50 AM33.8 °F28.4 °F81 %29.50 in6.2 miSW (220°)9.2 mphSnowLight Snow
12:00 PM34.0 °F28.0 °F69 %29.56 inSW (230°)6.9 mph
12:20 PM33.8 °F28.4 °F81 %29.47 in6.2 miSW (230°)8.1 mphMostly Cloudy
12:50 PM33.8 °F28.4 °F81 %29.47 in6.2 miSW (230°)6.9 mphMostly Cloudy
1:00 PM35.0 °F28.0 °F67 %29.55 in22.0 miSW (230°)6.9 mphSnowLight Snow
1:20 PM35.6 °F30.2 °F81 %29.47 in6.2 miSW (220°)9.2 mphMostly Cloudy
1:50 PM35.6 °F30.2 °F81 %29.47 in6.2 miWSW (240°)6.9 mphMostly Cloudy
2:00 PM35.0 °F29.0 °F71 %29.54 inWSW (250°)5.8 mph
2:20 PM35.6 °F30.2 °F81 %29.47 in6.2 miSW (230°)9.2 mphMostly Cloudy
2:50 PM35.6 °F30.2 °F81 %29.47 in6.2 miSW (220°)6.9 mphMostly Cloudy
3:00 PM36.0 °F30.0 °F70 %29.54 inSW (230°)8.1 mph
3:20 PM37.4 °F30.2 °F75 %29.47 in6.2 miSW (230°)6.9 mphMostly Cloudy
3:50 PM37.4 °F30.2 °F75 %29.47 in6.2 miSW (230°)5.8 mphMostly Cloudy
4:20 PM35.6 °F30.2 °F81 %29.50 in6.2 miWSW (250°)3.5 mphMostly Cloudy
4:50 PM37.4 °F30.2 °F75 %29.50 in6.2 miVariable3.5 mphMostly Cloudy
5:00 PM36.0 °F30.0 °F71 %29.55 inWSW (240°)5.8 mph
5:20 PM35.6 °F30.2 °F81 %29.50 in6.2 miSW (230°)6.9 mphMostly Cloudy
5:50 PM35.6 °F30.2 °F81 %29.50 in6.2 miWSW (240°)10.4 mphMostly Cloudy
6:00 PM37.0 °F31.0 °F70 %29.56 inSW (230°)10.4 mph
6:20 PM35.6 °F32.0 °F87 %29.50 in6.2 miWSW (250°)6.9 mphMostly Cloudy
6:50 PM35.6 °F32.0 °F87 %29.50 in6.2 miSW (230°)3.5 mphScattered Clouds
7:00 PM35.0 °F30.0 °F77 %29.57 in22.0 miWest (260°)2.3 mphPartly Cloudy
7:20 PM33.8 °F30.2 °F87 %29.50 in6.2 miWSW (240°)5.8 mphMostly Cloudy
7:50 PM35.6 °F32.0 °F87 %29.53 in6.2 miSSW (200°)11.5 mphMostly Cloudy
8:00 PM35.0 °F33.0 °F87 %29.58 inSouth (190°)10.4 mph
8:20 PM35.6 °F33.8 °F93 %29.53 in6.2 miSW (230°)10.4 mphMostly Cloudy
8:50 PM35.6 °F32.0 °F87 %29.53 in5.0 miWest (270°)4.6 mphRain-SnowRain Showers
9:00 PM35.0 °F33.0 °F88 %29.60 inSSW (210°)9.2 mph
9:20 PM35.6 °F33.8 °F93 %29.53 in6.2 miSSW (200°)11.5 mphMostly Cloudy
9:50 PM35.6 °F33.8 °F93 %29.53 in6.2 miSSW (210°)6.9 mphMostly Cloudy
10:20 PM35.6 °F32.0 °F87 %29.56 in6.2 miSW (230°)4.6 mphRain-SnowLight Snow Showers
10:50 PM37.4 °F32.0 °F81 %29.56 in6.2 miSSW (200°)10.4 mphMostly Cloudy
11:00 PM38.0 °F30.0 °F64 %29.61 inSSW (210°)13.8 mph
11:20 PM37.4 °F30.2 °F75 %29.56 in6.2 miSSW (210°)15.0 mphRain-SnowLight Rain
11:50 PM37.4 °F30.2 °F75 %29.56 in6.2 miSW (220°)15.0 mphMostly Cloudy
Hourly data recorded from LSGG, located miles away from Geneva, Switzerland







STORIES FROM OUR PARTNERS